When you browse on this site, cookies collect data to enhance your experience and personalize the content and advertising you see.
Visit our Privacy Policy to learn more. By continuing to use the site, you agree to this use of cookies and data.
  • In Schweiz
  • Länderverzeichnis
  • Für 7 Tage
  • Wassertemperatur
  • Wetterkarte
  • Widgets
  • user-avatar
    Anmelden

    Stündliche Wetter Barnsley

    Heute, 6 Dezember, Freitag

    Zeit Temperatur Niederschläge Wind Luftdruck Luftfeuchtigkeit
    00:00 +11°C° 0.1 mm 8 m/S 742 mmHg 85%
    01:00 +10°C° 0.1 mm 7 m/S 742 mmHg 86%
    02:00 +10°C° 0.1 mm 7 m/S 742 mmHg 88%
    03:00 +10°C° 0.1 mm 6 m/S 741 mmHg 89%
    04:00 +10°C° 0 mm 6 m/S 741 mmHg 88%
    05:00 +10°C° 0 mm 6 m/S 741 mmHg 88%
    06:00 +10°C° 0 mm 6 m/S 741 mmHg 88%
    07:00 +10°C° 0.1 mm 6 m/S 740 mmHg 87%
    08:00 +10°C° 0.1 mm 6 m/S 739 mmHg 87%
    09:00 +10°C° 0.1 mm 6 m/S 739 mmHg 86%
    10:00 +11°C° 0.1 mm 7 m/S 739 mmHg 81%
    11:00 +11°C° 0.1 mm 7 m/S 738 mmHg 76%
    12:00 +11°C° 0.1 mm 7 m/S 738 mmHg 72%
    13:00 +10°C° 1.2 mm 6 m/S 738 mmHg 76%
    14:00 +9°C° 1.2 mm 6 m/S 737 mmHg 81%
    15:00 +8°C° 1.2 mm 5 m/S 737 mmHg 86%
    16:00 +8°C° 0.3 mm 5 m/S 738 mmHg 84%
    17:00 +8°C° 0.3 mm 6 m/S 739 mmHg 82%
    18:00 +7°C° 0.3 mm 6 m/S 740 mmHg 80%
    19:00 +7°C° 0 mm 6 m/S 741 mmHg 81%
    20:00 +7°C° 0 mm 6 m/S 741 mmHg 82%
    21:00 +7°C° 0 mm 5 m/S 742 mmHg 83%
    22:00 +7°C° 0 mm 5 m/S 743 mmHg 83%
    23:00 +7°C° 0 mm 5 m/S 743 mmHg 83%

    Morgen, 7 Dezember, Samstag

    Zeit Temperatur Niederschläge Wind Luftdruck Luftfeuchtigkeit
    00:00 +7°C° 0 mm 5 m/S 744 mmHg 83%
    01:00 +7°C° 0 mm 5 m/S 744 mmHg 83%
    02:00 +7°C° 0 mm 5 m/S 744 mmHg 83%
    03:00 +7°C° 0 mm 5 m/S 745 mmHg 83%
    04:00 +7°C° 0 mm 5 m/S 745 mmHg 84%
    05:00 +7°C° 0 mm 5 m/S 745 mmHg 84%
    06:00 +7°C° 0 mm 4 m/S 746 mmHg 85%
    07:00 +7°C° 0 mm 4 m/S 746 mmHg 84%
    08:00 +7°C° 0 mm 5 m/S 746 mmHg 84%
    09:00 +7°C° 0 mm 5 m/S 747 mmHg 83%
    10:00 +7°C° 0 mm 5 m/S 747 mmHg 83%
    11:00 +7°C° 0 mm 5 m/S 747 mmHg 82%
    12:00 +8°C° 0 mm 5 m/S 747 mmHg 81%
    13:00 +8°C° 0 mm 5 m/S 746 mmHg 82%
    14:00 +8°C° 0 mm 4 m/S 746 mmHg 82%
    15:00 +8°C° 0 mm 4 m/S 746 mmHg 82%
    16:00 +7°C° 0 mm 5 m/S 745 mmHg 84%
    17:00 +7°C° 0 mm 5 m/S 745 mmHg 85%
    18:00 +7°C° 0 mm 6 m/S 744 mmHg 87%
    19:00 +7°C° 0.3 mm 6 m/S 743 mmHg 86%
    20:00 +8°C° 0.3 mm 7 m/S 742 mmHg 86%
    21:00 +7°C° 0.3 mm 8 m/S 741 mmHg 85%
    22:00 +8°C° 1.9 mm 9 m/S 739 mmHg 85%
    23:00 +8°C° 1.9 mm 10 m/S 738 mmHg 85%

    übermorgen, 8 Dezember, Sonntag

    Zeit Temperatur Niederschläge Wind Luftdruck Luftfeuchtigkeit
    00:00 +8°C° 1.9 mm 11 m/S 736 mmHg 85%
    01:00 +8°C° 0.6 mm 10 m/S 736 mmHg 81%
    02:00 +8°C° 0.6 mm 10 m/S 736 mmHg 76%
    03:00 +9°C° 0.6 mm 10 m/S 736 mmHg 71%
    04:00 +7°C° 0 mm 9 m/S 736 mmHg 71%
    05:00 +6°C° 0 mm 8 m/S 737 mmHg 70%
    06:00 +5°C° 0 mm 7 m/S 737 mmHg 69%
    07:00 +5°C° 0 mm 7 m/S 737 mmHg 70%
    08:00 +5°C° 0 mm 7 m/S 737 mmHg 71%
    09:00 +5°C° 0 mm 8 m/S 737 mmHg 73%
    10:00 +5°C° 0.1 mm 8 m/S 737 mmHg 70%
    11:00 +5°C° 0.1 mm 8 m/S 736 mmHg 68%
    12:00 +6°C° 0.1 mm 9 m/S 736 mmHg 65%
    13:00 +5°C° 0.4 mm 9 m/S 735 mmHg 65%
    14:00 +5°C° 0.4 mm 9 m/S 735 mmHg 66%
    15:00 +5°C° 0.4 mm 9 m/S 734 mmHg 66%
    16:00 +3°C° 0 mm 9 m/S 733 mmHg 68%
    17:00 +3°C° 0 mm 9 m/S 733 mmHg 69%
    18:00 +3°C° 0 mm 10 m/S 732 mmHg 71%
    19:00 +3°C° 1 mm 10 m/S 731 mmHg 73%
    20:00 +3°C° 1 mm 11 m/S 730 mmHg 75%
    21:00 +3°C° 1 mm 11 m/S 729 mmHg 77%
    22:00 +4°C° 0.6 mm 11 m/S 728 mmHg 76%
    23:00 +5°C° 0.6 mm 10 m/S 728 mmHg 75%

    9 Dezember, Montag

    Zeit Temperatur Niederschläge Wind Luftdruck Luftfeuchtigkeit
    00:00 +5°C° 0.6 mm 10 m/S 728 mmHg 73%
    01:00 +4°C° 0.8 mm 11 m/S 728 mmHg 75%
    02:00 +4°C° 0.8 mm 12 m/S 729 mmHg 77%
    03:00 +3°C° 0.8 mm 13 m/S 729 mmHg 79%
    04:00 +4°C° 0.5 mm 14 m/S 730 mmHg 77%
    05:00 +5°C° 0.5 mm 14 m/S 731 mmHg 75%
    06:00 +5°C° 0.5 mm 14 m/S 732 mmHg 73%
    07:00 +5°C° 0.1 mm 13 m/S 735 mmHg 71%
    08:00 +6°C° 0.1 mm 11 m/S 738 mmHg 69%
    09:00 +6°C° 0.1 mm 10 m/S 741 mmHg 66%
    10:00 +5°C° 0 mm 10 m/S 742 mmHg 64%
    11:00 +5°C° 0 mm 9 m/S 744 mmHg 61%
    12:00 +5°C° 0 mm 9 m/S 746 mmHg 59%
    13:00 +5°C° 0 mm 9 m/S 747 mmHg 60%
    14:00 +5°C° 0 mm 8 m/S 748 mmHg 61%
    15:00 +5°C° 0 mm 7 m/S 749 mmHg 62%
    16:00 +4°C° 0 mm 6 m/S 750 mmHg 65%
    17:00 +5°C° 0 mm 5 m/S 750 mmHg 68%
    18:00 +4°C° 0 mm 4 m/S 751 mmHg 71%
    19:00 +4°C° 0 mm 3 m/S 751 mmHg 74%
    20:00 +4°C° 0 mm 3 m/S 752 mmHg 77%
    21:00 +4°C° 0 mm 2 m/S 752 mmHg 80%
    22:00 +3°C° 0 mm 3 m/S 751 mmHg 82%
    23:00 +4°C° 0 mm 3 m/S 751 mmHg 83%

    10 Dezember, Dienstag

    Zeit Temperatur Niederschläge Wind Luftdruck Luftfeuchtigkeit
    00:00 +4°C° 0 mm 4 m/S 750 mmHg 85%
    01:00 +4°C° 0 mm 4 m/S 749 mmHg 86%
    02:00 +3°C° 0 mm 5 m/S 748 mmHg 86%
    03:00 +5°C° 0 mm 5 m/S 747 mmHg 87%
    04:00 +4°C° 1 mm 6 m/S 745 mmHg 88%
    05:00 +5°C° 1 mm 6 m/S 743 mmHg 89%
    06:00 +5°C° 1 mm 7 m/S 742 mmHg 91%
    07:00 +6°C° 1.9 mm 7 m/S 740 mmHg 91%
    08:00 +7°C° 1.9 mm 8 m/S 738 mmHg 91%
    09:00 +7°C° 1.9 mm 8 m/S 737 mmHg 92%
    10:00 +9°C° 0.3 mm 8 m/S 735 mmHg 91%
    11:00 +10°C° 0.3 mm 8 m/S 734 mmHg 89%
    12:00 +11°C° 0.3 mm 8 m/S 732 mmHg 88%
    13:00 +11°C° 0.4 mm 8 m/S 731 mmHg 87%
    14:00 +11°C° 0.4 mm 9 m/S 730 mmHg 86%
    15:00 +12°C° 0.4 mm 10 m/S 729 mmHg 85%
    16:00 +9°C° 1.7 mm 10 m/S 729 mmHg 84%
    17:00 +7°C° 1.7 mm 10 m/S 730 mmHg 82%
    18:00 +6°C° 1.7 mm 10 m/S 730 mmHg 81%
    19:00 +5°C° 0.8 mm 10 m/S 731 mmHg 75%
    20:00 +5°C° 0.8 mm 9 m/S 732 mmHg 70%
    21:00 +3°C° 0.8 mm 9 m/S 733 mmHg 65%
    22:00 +3°C° 0 mm 9 m/S 734 mmHg 64%
    23:00 +2°C° 0 mm 9 m/S 734 mmHg 63%

    11 Dezember, Mittwoch

    Zeit Temperatur Niederschläge Wind Luftdruck Luftfeuchtigkeit
    00:00 +2°C° 0 mm 8 m/S 735 mmHg 62%
    01:00 +2°C° 0 mm 8 m/S 735 mmHg 64%
    02:00 +2°C° 0 mm 8 m/S 734 mmHg 65%
    03:00 +2°C° 0 mm 8 m/S 734 mmHg 66%
    04:00 +2°C° 0 mm 8 m/S 734 mmHg 66%
    05:00 +2°C° 0 mm 8 m/S 733 mmHg 67%
    06:00 +1°C° 0 mm 8 m/S 733 mmHg 67%
    07:00 +1°C° 0 mm 8 m/S 732 mmHg 67%
    08:00 +1°C° 0 mm 8 m/S 732 mmHg 67%
    09:00 +1°C° 0 mm 8 m/S 731 mmHg 66%
    10:00 +2°C° 0 mm 9 m/S 730 mmHg 64%
    11:00 +2°C° 0 mm 9 m/S 730 mmHg 62%
    12:00 +2°C° 0 mm 10 m/S 729 mmHg 60%
    13:00 +2°C° 0 mm 10 m/S 728 mmHg 61%
    14:00 +2°C° 0 mm 10 m/S 728 mmHg 62%
    15:00 +2°C° 0 mm 10 m/S 727 mmHg 63%
    16:00 +2°C° 0.4 mm 10 m/S 726 mmHg 68%
    17:00 +1°C° 0.4 mm 10 m/S 726 mmHg 74%
    18:00 +1°C° 0.4 mm 10 m/S 725 mmHg 79%
    19:00 +1°C° 0.5 mm 11 m/S 725 mmHg 77%
    20:00 +1°C° 0.5 mm 11 m/S 725 mmHg 75%
    21:00 +2°C° 0.5 mm 11 m/S 725 mmHg 73%
    22:00 +1°C° 0.6 mm 11 m/S 725 mmHg 77%
    23:00 +1°C° 0.6 mm 11 m/S 725 mmHg 80%
    Mehr zeigen